COSMOS 1275 DEB, 42230

Orbit data source: Space-Track

COSMOS 1275 DEB, 42230 is space debris in LEO originally from a launch on Thu, 04 Jun 1981 UTC launched from the Plesetsk Missile And Space Complex (PKMTR). Debris objects in space refer to the collection of defunct objects orbiting the Earth. Examples of debris include non-operational satellites, rocket bodies, and fragments generated from explosions, collisions, or faulty payload assembly.

Loading next visibility...
Identifier
42230, 1981-053UW
Orbit
LEO
Country
Flag of CISCIS
Related business
Manufacturer
Unknown
Mission
Spacecraft
Bus & Motor
Unknown
Mass
Unknown
Launch date (UTC)
1981-06-04 (45 years ago)
Launch vehicle
Unknown
Launch site
Plesetsk Missile And Space Complex (PKMTR)
Object type
Payload
Rocket body
Debris
Shape & HBR
Unknown shape, 0.1 m
Radar Cross Section
Small (<0.1 m²)

Expand to show TLE details & history
Last TLE update: 2 days ago

TLE from 2 days ago
0 COSMOS 1275 DEB
1 42230U 81053UW  26205.66702659  .00001855  00000-0  90976-3 0  9997
2 42230  82.7475 291.8742 0041017 182.5778 177.5197 14.16897546632313
Epoch: 2026-07-24T16:00Z
TLE epoch observation values (Epoch: 2026-07-24T16:00:31.097Z)
Latitude
0.00003°
Longitude
109.35426°
Altitude
868.385 km
Speed
7.403 km/s
True Right ascension
19h 27m 29s
True Declination
0° 00' 00"
Sunlit
Object was in full shadow at epoch
Visualization orbit readout
Latitude
Unknown
Longitude
Unknown
Altitude
Unknown
Speed
Unknown
Apparent Right ascension
Unknown
Apparent Declination
Unknown
Sunlit
N/A
Visualization observer readout
Local Sidereal Time
03:22:43
Azimuth
Unknown
Elevation
Unknown
Doppler factor
Unknown
Orbital elements
Apogee altitude
862.541 km
Perigee altitude
803.385 km
Semi-major axis
7,211.1 km
Eccentricity
0.0041
Inclination
82.7475°
RAAN
291.8742°
Arg. of periapsis
182.5778°
True anomaly
177.53994°
Mean anomaly
177.5197°
Eccentric anomaly
177.52983°
Mean motion
3.54439 °/min
Orbital period
101.57 mins
BSTAR
0.00090976
Loading maneuver chart data...
Computing Atmospheric mass density...

Documentation

Showing up to 5 results
|